Change the Weather History Date:

Friday, December 7, 2012

  Actual Average Record
Temperature  
Mean Temperature 52 °F -  
Max Temperature 64 °F 53 °F 66 °F (2006)
Min Temperature 39 °F 32 °F 23 °F (2013)
Degree Days  
Heating Degree Days 14    
Growing Degree Days 2 (Base 50)    
Moisture  
Dew Point 20 °F    
Average Humidity 31    
Maximum Humidity 47    
Minimum Humidity 8    
Precipitation  
Precipitation 0.00 in - - ()
Sea Level Pressure  
Sea Level Pressure 29.97 in    
Wind  
Wind Speed 6 mph (NE)    
Max Wind Speed 14 mph    
Max Gust Speed 18 mph    
Visibility 10 miles    
Events      
Averages and records for this station are not official NWS values.
T = Trace of Precipitation, MM = Missing Value Source: NWS Daily Summary

Daily Weather History Graph

Daily Weather History Graph

Search for Another Location

Airport or City:

Trip Planner

Search our weather history database for the weather conditions in past years. The results will help you decide how hot, cold, wet, or windy it might be!

Date:

Astronomy

Dec. 07, 2012 Rise Set
Actual Time 6:43 AM PST 4:28 PM PST
Civil Twilight 6:14 AM PST 4:56 PM PST
Nautical Twilight 5:42 AM PST 5:29 PM PST
Astronomical Twilight 5:11 AM PST 6:00 PM PST
Moon 12:16 AM PST (12/7) 12:19 PM PST (12/7)
Length of Visible Light 10h 41m
Length of Day
9h 44m
Last Quarter, 37% of the Moon is Illuminated
Dec 7
Last Quarter
Dec 13
New
Dec 19
First Quarter
Dec 28
Full
Jan 4
Last Quarter

Hourly Weather History & Observations

Time (PST) Temp. Windchill Dew Point Humidity Pressure Visibility Wind Dir Wind Speed Gust Speed Precip Events Conditions
12:52 AM 45.0 °F 43.5 °F 23.0 °F 42% 29.93 in 10.0 mi Variable 3.5 mph - N/A   Clear
1:52 AM 45.0 °F 40.1 °F 21.0 °F 39% 29.93 in 10.0 mi North 9.2 mph - N/A   Clear
2:52 AM 42.1 °F 38.4 °F 21.9 °F 45% 29.94 in 10.0 mi North 5.8 mph - N/A   Clear
3:52 AM 39.0 °F 34.8 °F 19.9 °F 46% 29.94 in 10.0 mi SE 5.8 mph - N/A   Clear
4:52 AM 42.1 °F 38.4 °F 23.0 °F 47% 29.97 in 10.0 mi ENE 5.8 mph - N/A   Clear
6:52 AM 48.9 °F - 28.0 °F 44% 30.01 in 10.0 mi East 4.6 mph 16.1 mph N/A   Clear
7:52 AM 52.0 °F - 26.1 °F 37% 30.03 in 10.0 mi Calm Calm - N/A   Clear
8:52 AM 54.0 °F - 26.1 °F 34% 30.04 in 10.0 mi NNE 12.7 mph - N/A   Clear
9:52 AM 55.9 °F - 24.1 °F 29% 30.04 in 10.0 mi NE 13.8 mph - N/A   Clear
10:52 AM 57.9 °F - 24.1 °F 27% 30.00 in 10.0 mi NNE 10.4 mph - N/A   Clear
11:52 AM 61.0 °F - 19.9 °F 21% 29.99 in 10.0 mi ENE 8.1 mph 18.4 mph N/A   Clear
12:52 PM 63.0 °F - 19.9 °F 19% 29.96 in 10.0 mi NE 8.1 mph - N/A   Clear
1:52 PM 64.0 °F - 18.0 °F 17% 29.94 in 10.0 mi North 8.1 mph - N/A   Clear
2:52 PM 63.0 °F - 17.1 °F 17% 29.93 in 10.0 mi NE 6.9 mph - N/A   Clear
3:52 PM 62.1 °F - 17.1 °F 18% 29.94 in 10.0 mi NE 8.1 mph - N/A   Clear
4:52 PM 54.0 °F - 17.1 °F 23% 29.96 in 10.0 mi NE 3.5 mph - N/A   Clear
5:52 PM 48.9 °F - 18.0 °F 29% 29.97 in 10.0 mi NNE 6.9 mph - N/A   Clear
6:52 PM 46.0 °F 44.8 °F 17.1 °F 31% 29.97 in 10.0 mi East 3.5 mph - N/A   Clear
7:52 PM 44.1 °F - 18.0 °F 35% 29.99 in 10.0 mi Calm Calm - N/A   Clear
8:52 PM 44.1 °F - 17.1 °F 34% 29.98 in 10.0 mi Calm Calm - N/A   Clear
9:52 PM 41.0 °F 38.0 °F 17.1 °F 38% 29.98 in 10.0 mi East 4.6 mph - N/A   Clear
10:52 PM 39.9 °F 35.1 °F 18.0 °F 41% 29.97 in 10.0 mi East 6.9 mph - N/A   Clear
11:52 PM 39.0 °F - 18.0 °F 43% 29.96 in 10.0 mi Calm Calm - N/A   Clear